Wind_Speed
3 5 12 17 21 16 16 14 11 9 8 7 17 18 20 20 11 9 10 13 14 16 18 23 25 26 25 25 25 26 26 25 24 23 22 21 22 20 19 18 18 17 17 17
5 7 14 14 13 11 14 15 14 8 5 5 11 18 16 18 21 17 14 13 15 13 14 20 24 26 28 28 27 27 27 27 29 26 23 22 21 20 20 20 20 22 22 20
10 13 6 16 14 13 12 14 11 7 4 8 9 16 21 22 20 20 17 14 14 13 15 15 22 28 28 29 29 29 29 30 29 27 24 20 17 18 19 21 21 25 24 23
3 9 13 15 17 16 8 2 3 8 4 6 7 9 12 19 23 20 21 19 18 16 14 15 21 25 30 32 30 31 30 30 30 29 25 25 23 22 21 24 28 27 27 26
6 14 17 14 13 17 6 9 8 5 2 4 8 5 7 4 14 19 20 21 20 17 17 18 19 27 31 29 31 31 31 32 31 31 30 27 25 24 21 23 23 26 30 30
9 14 14 10 13 8 17 13 10 5 2 5 13 11 11 13 13 14 18 20 20 18 17 17 25 25 25 28 29 30 31 32 31 32 32 31 29 26 24 24 22 21 26 31
9 13 4 16 13 8 1 11 3 2 4 6 3 12 16 9 11 9 13 16 17 17 16 16 15 21 25 28 31 31 31 33 34 35 33 34 32 30 29 26 25 22 23 30
13 6 13 19 8 13 12 6 5 7 6 3 2 9 4 9 7 14 11 9 8 15 14 12 14 21 24 27 29 29 28 31 31 33 35 34 34 32 31 29 27 27 26 32
14 6 12 17 6 20 7 5 1 2 2 1 6 8 10 12 14 8 11 7 8 7 8 10 11 17 19 23 28 30 28 28 28 33 32 32 32 33 31 29 29 29 27 25
13 7 10 6 9 7 12 13 4 4 4 6 6 7 8 7 6 8 8 10 8 8 8 7 8 11 15 16 18 24 30 34 37 32 33 33 33 32 32 29 30 30 28 27
18 7 9 8 11 14 5 13 6 4 4 3 4 5 3 3 2 3 2 3 3 4 5 5 6 6 8 10 13 17 22 25 26 32 31 30 29 28 29 30 30 34 31 32
4 6 11 20 3 9 15 14 15 6 6 8 3 9 7 5 4 2 3 3 0 1 3 4 4 6 7 8 10 12 13 16 19 20 22 24 22 24 30 31 33 34 37 33
11 7 9 7 7 7 22 17 19 11 1 6 6 8 12 7 3 5 4 6 1 2 2 2 2 3 6 8 10 11 13 15 15 15 19 21 23 23 22 27 30 33 34 34
7 7 10 12 7 14 14 21 17 18 6 12 14 22 7 6 4 3 2 3 5 5 4 5 5 4 6 7 8 8 9 10 12 16 16 17 20 22 24 24 28 32 30 33
8 6 9 7 10 17 17 19 21 22 28 15 21 22 18 13 10 10 9 11 8 9 8 8 7 4 5 5 7 9 10 12 14 15 17 19 22 22 23 28 28 29 30 33
11 5 9 2 4 12 11 16 22 28 29 22 22 23 11 12 11 11 12 12 11 11 9 5 4 3 4 6 9 12 12 15 17 17 20 19 21 22 24 24 25 26 29 30
12 5 4 4 6 6 1 23 23 25 25 25 22 31 8 10 8 8 11 12 13 9 8 6 4 4 5 8 11 12 12 13 18 20 21 22 22 21 22 22 23 26 28 31
8 6 3 3 4 5 17 14 22 25 23 26 28 25 9 8 9 9 12 13 10 11 9 4 4 6 4 5 7 9 12 16 21 22 24 22 21 22 22 23 24 26 29 32
14 8 5 6 11 4 14 10 12 19 22 22 24 25 19 14 3 14 12 12 13 7 2 3 6 8 9 4 5 7 11 15 20 24 23 22 22 23 23 24 25 25 27 29
4 12 4 5 7 12 9 15 8 8 19 15 21 20 15 9 10 16 13 3 5 6 7 5 9 11 9 6 4 6 9 13 18 20 22 23 24 25 25 25 25 25 26 28
7 2 15 6 6 6 3 8 14 11 5 5 14 17 14 13 17 1 6 8 7 6 7 5 5 7 10 12 6 4 6 9 12 14 16 18 21 23 23 21 22 23 24 26
11 11 7 6 8 19 6 8 18 9 3 2 1 1 4 5 8 7 7 6 6 6 6 8 7 9 9 10 8 6 6 9 11 11 11 14 17 20 21 21 21 22 23 24
9 10 8 13 11 2 8 6 6 3 3 4 3 3 3 7 7 8 7 5 5 7 7 12 13 11 13 12 9 7 7 10 8 7 8 10 13 17 20 21 22 22 24 22
3 8 4 4 8 5 8 2 0 2 3 3 1 3 4 7 8 6 6 5 5 7 10 13 13 13 13 14 12 10 8 8 7 6 6 7 9 12 16 18 21 22 22 21
3 8 6 4 3 3 0 5 7 6 5 7 4 3 8 11 8 7 6 5 6 8 10 12 12 11 12 14 14 13 10 7 6 6 6 6 6 9 12 17 19 21 23 26
5 5 9 10 12 9 7 11 10 10 8 7 7 5 6 6 8 7 7 7 8 10 10 11 12 11 12 13 14 12 10 8 7 6 6 5 5 7 10 12 16 19 20 23
Wind_Direction
201 172 200 186 197 175 179 193 202 216 141 197 222 237 242 242 213 233 248 243 221 224 209 207 207 204 204 202 199 199 197 197 196 198 198 202 206 207 211 211 208 207 203 206
146 205 184 198 206 180 188 199 224 182 166 225 245 247 243 244 241 246 243 241 236 231 215 203 204 204 205 204 204 204 201 200 198 200 204 210 211 212 213 212 209 215 213 212
193 165 219 190 190 178 193 199 199 192 198 248 288 271 250 240 240 241 234 243 251 238 226 211 206 205 206 208 207 207 206 205 204 203 205 209 214 213 214 212 214 218 215 220
215 160 172 177 184 182 171 201 110 128 182 250 175 278 248 226 225 222 222 223 230 236 229 224 209 212 208 210 208 211 210 210 208 205 205 205 208 207 212 212 218 226 218 223
155 168 166 189 169 181 116 112 97 98 104 15 211 252 250 304 227 226 220 220 219 210 210 220 213 213 214 210 209 211 212 213 212 209 208 208 211 215 216 218 217 222 224 223
127 169 172 171 144 122 128 112 73 59 24 247 233 218 263 242 237 243 241 227 226 210 208 213 213 211 214 213 211 211 212 215 214 213 212 213 214 214 215 218 214 216 215 222
140 166 145 144 110 125 153 144 108 188 197 235 21 222 251 268 280 252 252 239 223 221 212 212 209 204 210 207 211 210 210 213 213 215 214 216 217 216 221 219 216 211 209 218
162 191 180 177 175 157 177 198 177 207 210 240 87 233 233 272 291 272 248 274 285 221 221 215 208 207 207 211 208 209 213 218 214 215 217 217 219 220 221 221 220 220 219 222
184 141 165 182 140 147 171 194 80 83 69 293 215 252 251 246 259 259 245 249 245 251 240 238 227 224 220 215 213 206 209 217 217 218 218 219 222 219 220 221 221 224 222 219
171 123 182 155 137 194 180 149 147 217 207 240 235 249 250 259 273 230 232 240 265 261 242 239 248 235 228 231 225 221 216 214 218 217 216 216 218 219 221 221 222 223 221 212
165 124 153 150 199 176 179 183 213 191 232 243 284 250 79 275 330 301 186 165 300 324 307 287 270 255 254 242 232 230 227 223 219 215 215 215 215 215 221 224 227 225 221 217
123 112 151 185 112 215 206 185 187 192 193 234 324 256 146 143 156 171 136 149 203 255 319 297 287 293 273 260 248 234 235 233 226 215 210 211 211 215 224 227 228 229 229 232
159 127 121 152 264 210 210 206 208 227 347 200 195 262 183 207 184 216 229 313 125 106 18 321 282 262 260 249 241 233 226 220 221 216 211 210 211 209 212 224 229 228 227 227
117 155 168 186 183 155 195 208 208 208 207 209 217 242 189 187 202 157 287 299 313 323 336 308 283 266 259 255 255 245 228 221 216 213 217 215 216 214 215 218 223 228 229 230
164 155 198 191 175 176 195 200 194 207 226 211 234 240 236 233 251 276 298 297 274 274 267 258 258 259 268 252 235 233 231 217 211 218 223 226 229 228 224 223 227 228 226 226
178 166 173 92 142 182 194 193 201 212 225 234 252 267 246 259 266 261 274 282 285 282 282 270 274 284 269 251 247 235 231 225 228 223 225 228 235 233 233 229 224 223 221 220
164 119 124 174 146 112 355 212 205 217 224 223 237 243 231 244 255 253 270 279 285 292 283 288 307 289 233 239 243 237 239 234 236 233 236 234 232 232 231 232 226 220 218 217
137 116 96 118 116 198 241 207 209 214 222 223 242 255 249 258 267 258 254 263 264 272 279 306 317 296 287 264 250 247 236 234 240 241 240 237 233 231 228 228 228 223 218 215
193 156 149 156 199 311 264 197 211 207 239 225 234 248 249 252 184 253 232 242 240 256 62 312 301 301 300 275 243 242 245 246 249 246 244 243 238 234 232 226 225 226 221 215
206 196 169 153 196 216 238 170 166 153 262 220 225 240 236 209 227 250 243 254 95 88 85 35 342 329 331 340 286 225 232 245 258 264 259 253 243 235 231 232 226 223 220 218
171 143 204 182 223 264 161 152 144 188 259 234 216 231 233 222 229 40 103 85 86 77 61 45 45 17 341 326 308 267 261 262 278 281 274 263 256 245 239 234 229 225 217 214
169 172 193 202 223 253 152 152 187 209 73 76 117 175 242 215 112 120 120 105 100 94 70 45 51 44 25 359 345 341 328 317 309 301 281 268 257 250 241 234 226 223 216 211
191 198 168 189 211 168 179 194 217 87 119 176 202 190 177 138 148 154 125 98 74 75 64 50 51 43 37 38 25 17 355 346 335 310 289 275 262 249 241 231 224 217 215 203
234 202 195 125 206 185 171 158 25 137 165 136 114 121 161 147 126 115 110 107 97 63 58 54 51 39 31 37 41 25 7 359 352 332 310 290 272 256 246 236 230 217 205 202
143 138 158 267 93 59 242 202 183 157 130 125 94 95 124 119 114 139 117 93 84 76 67 63 64 54 41 37 36 27 18 7 7 352 336 318 286 264 255 247 235 228 229 222
188 166 194 223 167 199 194 175 146 156 158 142 129 109 55 94 124 122 102 100 100 86 76 65 61 56 42 46 43 35 25 16 6 358 351 331 301 281 264 256 250 249 245 246
Height
800 798 794 788 781 776 783 789 792 793 801 805 801 800 795 789 793 796 795 790 792 796 799 805 811 816 821 825 828 832 835 839 844 847 849 852 853 856 859 861 864 866 868 869
799 792 781 782 776 779 782 790 793 790 803 808 797 794 790 786 782 785 789 789 790 793 794 799 806 811 815 819 823 827 830 833 835 840 845 847 849 852 854 857 859 861 863 865
780 772 783 777 779 784 787 791 794 802 804 806 805 794 789 780 779 779 781 784 786 787 791 795 801 804 809 811 816 820 824 827 830 834 839 843 846 848 850 852 854 854 857 860
779 779 780 780 782 780 802 797 796 806 811 809 801 796 762 759 766 771 772 776 780 783 785 788 794 800 800 803 810 814 817 822 825 829 832 835 838 840 843 845 847 849 851 854
780 779 782 789 783 780 795 798 807 815 818 822 805 815 768 757 766 762 761 766 765 770 776 781 785 790 793 799 802 806 810 814 818 822 824 828 831 834 838 840 841 843 846 849
768 769 775 778 785 789 797 808 817 822 825 836 806 806 774 762 761 759 754 754 759 761 766 771 775 782 788 792 796 800 803 807 812 815 817 819 823 827 830 833 835 837 840 842
778 777 776 775 794 801 802 806 831 836 837 814 802 794 776 754 750 754 752 750 752 755 760 764 769 774 779 783 787 791 795 797 802 807 810 813 815 819 823 825 828 831 833 834
768 793 778 773 774 795 806 795 797 811 806 791 815 798 770 756 757 754 751 752 749 751 755 759 763 768 771 776 778 783 789 791 795 799 801 805 809 811 814 817 821 824 825 825
754 769 773 772 776 782 806 809 795 807 834 815 787 775 762 756 753 756 753 756 757 756 757 759 762 765 769 771 771 772 778 784 788 791 795 798 802 803 805 809 812 816 819 821
740 778 777 783 781 785 782 791 810 805 816 808 773 778 768 755 749 747 750 751 752 752 754 757 760 762 765 767 768 770 770 770 774 782 785 786 790 796 799 802 804 807 810 813
731 751 786 787 785 789 795 791 789 783 793 793 785 762 745 751 753 748 745 749 750 752 754 756 759 761 763 762 763 764 767 768 769 771 775 779 783 788 794 795 798 801 804 806
734 746 776 781 780 774 778 785 783 786 798 784 788 771 746 748 748 747 747 748 750 754 757 758 758 759 760 761 763 761 763 766 768 769 771 774 778 781 786 789 791 795 798 801
728 750 777 795 785 777 774 775 777 774 787 795 795 760 734 741 745 746 747 747 747 752 753 757 756 755 756 757 759 759 760 761 764 766 768 771 772 775 777 783 785 788 792 794
722 737 742 750 745 758 778 774 775 778 789 773 772 742 743 745 744 743 746 747 746 748 749 752 753 751 751 754 757 758 759 760 763 766 769 769 769 771 771 776 779 783 786 788
716 742 735 731 734 747 756 763 770 774 757 766 741 746 744 736 737 738 740 743 745 748 748 748 748 747 751 755 756 758 759 760 760 763 764 765 766 767 768 769 770 775 779 782
713 739 735 755 745 743 751 755 760 758 751 760 744 742 736 735 734 738 740 741 742 743 744 743 743 744 746 748 752 754 756 757 759 757 757 759 763 765 765 765 767 770 773 776
719 736 746 750 750 756 767 745 743 748 748 745 751 720 738 735 737 740 741 740 740 740 740 739 741 741 742 744 747 749 752 755 756 755 755 756 756 759 763 767 766 766 768 773
730 739 750 763 761 763 724 720 725 732 733 735 729 721 731 731 731 733 735 734 737 737 737 739 741 741 741 741 743 746 748 750 752 752 753 754 757 758 758 762 765 766 766 767
715 726 745 747 748 731 719 720 718 725 722 721 721 721 726 728 735 731 730 730 730 730 734 739 741 741 741 738 737 740 743 747 749 749 750 753 755 756 759 760 762 764 767 769
723 715 724 749 735 737 702 705 713 719 728 710 713 715 720 727 738 715 720 726 732 735 733 737 742 743 742 740 737 735 737 742 748 751 750 751 753 753 754 758 759 762 765 770
731 729 720 730 727 718 709 709 710 734 716 696 701 705 712 720 714 722 731 734 737 738 738 738 739 740 744 743 738 736 737 739 743 746 747 749 753 755 755 757 759 762 764 767
698 708 717 724 727 723 705 713 705 699 707 706 713 714 717 710 722 728 733 735 736 737 740 740 740 738 739 743 742 739 741 742 742 741 743 745 748 752 755 756 757 760 764 768
688 679 693 698 694 697 695 690 697 703 705 714 715 717 714 716 723 730 735 739 741 741 741 740 739 740 741 742 743 742 743 741 740 740 742 743 747 750 751 754 755 757 761 765
691 681 685 696 686 691 694 703 705 708 711 715 716 716 717 719 727 736 738 740 741 742 740 740 743 746 745 744 742 744 742 742 741 741 742 744 746 749 753 753 753 755 757 760
676 688 694 691 699 699 699 700 703 711 715 717 719 720 720 724 732 738 738 740 741 742 742 744 745 747 747 745 745 744 743 743 741 741 741 742 744 747 750 753 754 755 756 757
673 667 674 668 682 679 683 695 703 711 714 716 718 723 727 729 736 738 738 741 741 742 746 748 749 749 748 745 744 745 745 743 743 743 742 743 745 746 749 751 752 753 755 756